Dana Point, CA (92629)

9:40 PM PDT on May 06, 2015 (GMT -0700)
Dana Hills | | Change Station
CLOSE
Current Station
Personal Weather Station
Location: Dana Point, CA
Elevation: 286 ft
Nearby Weather Stations
Active Advisory: Beach Hazard Statement

Elev 286 ft 33.48 °N, 117.70 °W | Updated 6 minutes ago

Mostly Cloudy
Mostly Cloudy
58.4 °F
Feels Like 58.4 °F
N
0.0
Wind Variable Wind from NW
Gusts 0.0 mph

Today
High -- | Low -- °F
--% Chance of Precip.
Yesterday
High -- | Low -- °F
Precip. -- in
5:57 AM 7:37 PM
Waning Gibbous, 90% visible
Pressure 29.87 in
Visibility 10.0 miles
Clouds Few 3000 ft
Mostly Cloudy 4800 ft
Dew Point 53 °F
Humidity 82%
Rainfall 0.00 in
Snow Depth Not available.
UV 0 out of 12
Pollen 5.60 out of 12
Air Quality Not available.
Flu Activity Sporadic
METAR KSNA 070353Z 28003KT 10SM FEW030 BKN048 16/10 A2987 RMK AO2 SLP114 T01560100

More Conditions Fewer Conditions

Pressure 29.87 in
Visibility 10.0 miles
Clouds Few 3000 ft
Mostly Cloudy 4800 ft
Dew Point 53 °F
Humidity 82%
Rainfall 0.00 in
Snow Depth Not available.
UV 0 out of 12
Pollen 5.60 out of 12
Air Quality Not available.
Flu Activity Sporadic
METAR KSNA 070353Z 28003KT 10SM FEW030 BKN048 16/10 A2987 RMK AO2 SLP114 T01560100

More Conditions Fewer Conditions

10-Day Weather Forecast

Almanac

Astronomy

May. 06, 2015 Rise Set
Actual Time
Civil Twilight
Nautical Twilight
Astronomical Twilight
Moon
Length of Visible Light
Length of Day
Tomorrow will be .
, % of the Moon is Illuminated

Today's Extremes

State Highs State Lows

Community

WunderPhotos

Upload Photos

1,819,121 photos uploaded!

WunderBlogs® & News

Nearby

Air Quality

  Air Quality AQ Index Pollutant
Not available.

Snow Depth

Station Depth Elevation

Earthquake Activity

City Distance Mag. Time & Date
Minimum magnitude displayed is 2.5.

Coastal Water Temperatures

Place Temperature

Stations

Nearby Weather Stations

Station Location Temp. Windchill Dew Point Humidity Wind Precip. Elev Updated Type
                   
Beach Hazard Statement
Statement as of 1:12 PM PDT on May 06, 2015

... Beach hazards statement remains in effect until 10 PM PDT this
evening...

* waves and surf... 4 to 6 feet with occasional sets to 7 feet.
Sets up to 10 feet at The Wedge.

* Timing... through the evening.

* Impacts... dangerous swimming conditions. People standing too
close to the waves may be swept off their feet and injured.

Precautionary/preparedness actions...

A beach hazards statement is issued when threats such as strong
rip currents... elevated surf heights... minor tidal overflow... or
lightning are possible at local beaches. Obey posted warning
signs and flags and talk to a lifeguard before swimming. Use
caution when in or near the water and always swim near a
lifeguard.



Mm